Find OneWeb SL0326

NORAD ID: 49195 Int'l Des: 2021-083 Owner: ONEWEBN Country: UK Constellation: oneweb operational
LEOCIRCULARPOLARONEWEB_TYPE

リアルタイム位置

3D地球を読み込み中...

OneWeb SL0326について

説明を読み込み中...

次回通過

Passes for default location (London). Set your location on the main map for personalized predictions.

高度履歴

Loading altitude history...

軌道要素

1 49195U 21083K 26121.11046738 .00000143 00000-0 32948-3 0 9991
2 49195 87.9199 344.8206 0001871 92.6425 267.4921 13.18712581223796
Epoch: May 1, 2026 • Age: 13 hours

現在のステータス

高度 1201.5 km
速度 7.26 km/s
衛星直下点 78.11°N, 101.9°W
打ち上げ日 Sep 14, 2021
運用期間 4.6 years
タイプ internet

技術仕様

分類 Payload
質量 148.00 kg
乾燥質量 140.00 kg
総質量 148.00 kg
長さ 1.30 m
直径 1.00 m
スパン 5.00 m
形状 Trapezoid+2 pan
製造者 ONEWUS
バスタイプ ARROW
フェーズステータス In Orbit
所有者/国 ONEWEBN/UK

Most Searched